Location: Unspecified
(0.0000°N, 0.0000°E)
Time: 07:04:55
(UTC+00:00)

USA 238 DEB - Pass Details

Date: 29 May 2023
Orbit: 930 x 1283 km, 63.4° (Epoch: 27 September)

Event Time Altitude Azimuth Distance (km) Brightness Sun altitude
Rises 05:05:16 0° 17° (NNE) 4,178 7.4 -12.1°
Reaches altitude 10° 05:10:52 10° 49° (NE) 3,260 7.5 -10.8°
Maximum altitude 05:13:04 11° 66° (ENE) 3,172 7.8 -10.3°
Drops below altitude 10° 05:15:16 10° 82° (E) 3,276 7.7 -9.8°
Sets 05:20:52 0° 113° (ESE) 4,239 7.6 -8.5°
